Home   Weather   Lynchburg   Past weeks

Flag for USA Past Weather in Lynchburg, Virginia, USA — Yesterday and Last 2 Weeks

Now
77 °F

Passing clouds.


Feels Like: 79 °F
Forecast: 58 / 79 °F
Wind: 14 mph from Southwest

Location: Lynchburg Regional Airport

Current Time: Apr 27, 2017 at 5:12:06 pm

Latest Report: Apr 27, 2017 at 3:54 pm


Visibility: 10 mi

Pressure: 29.80 "Hg

Humidity: 48%

Dew Point: 56 °F

Location of LynchburgLocation

Past Weather in Lynchburg — Graph

°F

Lynchburg Temperature Yesterday

Maximum temperature yesterday: 79 °F (at 4:54 pm)
Minimum temperature yesterday: 47 °F (at 2:12 am)
Average temperature yesterday: 60 °F

High & Low Weather Summary for the Past Weeks

 TemperatureHumidityPressure
High84 °F (Apr 21, 3:54 pm)100% (Apr 19, 10:05 pm)30.42 "Hg (Apr 19, 10:05 pm)
Low47 °F (Apr 26, 2:12 am)26% (Apr 13, 12:54 pm)29.70 "Hg (Apr 25, 12:54 pm)
Average61 °F76%30.05 "Hg
* Reported Apr 12 2:54 pm — Apr 27 2:54 pm, Lynchburg, Weather by CustomWeather, © 2017

Note: Actual official high and low records may vary slightly from our data, if they occured in-between our weather recording intervals... More about our weather records

Advertising

Lynchburg Weather History for the Previous 24 Hours

Scroll right to see more
 ConditionsComfort  
Time TempWeatherWind HumidityBarometerVisibility
2:54 pm
Thu, Apr 27
79 °FSunny.15 mph45%29.81 "Hg10 mi
1:54 pm78 °FSunny.14 mph45%29.81 "Hg10 mi
12:54 pm77 °FPassing clouds.15 mph47%29.82 "Hg10 mi
11:54 am76 °FSunny.14 mph54%29.83 "Hg10 mi
10:54 am72 °FSunny.9 mph68%29.86 "Hg10 mi
9:54 am67 °FSunny.10 mph79%29.87 "Hg10 mi
8:54 am65 °FSunny.7 mph85%29.86 "Hg10 mi
7:54 am61 °FSunny.7 mph97%29.83 "Hg10 mi
6:54 am56 °FSunny.No wind100%29.81 "Hg10 mi
6:23 am56 °FFog.No wind97%29.83 "Hg10 mi
5:54 am55 °FFog.No wind100%29.81 "Hg1 mi
5:23 am55 °FFog.No wind100%29.82 "Hg0 mi
5:08 am56 °FFog.No wind97%29.83 "Hg1 mi
5:01 am57 °FFog.No wind100%29.83 "Hg1 mi
4:36 am57 °FFog.No wind100%29.83 "Hg1 mi
4:17 am57 °FFog.No wind100%29.82 "Hg1 mi
3:54 am58 °FClear.No wind97%29.80 "Hg9 mi
3:40 am59 °FClear.No wind96%29.82 "Hg8 mi
3:17 am57 °FFog.No wind100%29.82 "Hg1 mi
3:03 am58 °FFog.No wind100%29.82 "Hg2 mi
2:26 am59 °FFog.No wind96%29.83 "Hg3 mi
2:17 am58 °FFog.No wind97%29.82 "Hg2 mi
1:54 am59 °FClear.3 mph100%29.80 "Hg10 mi
12:54 am60 °FClear.No wind100%29.81 "Hg10 mi
11:54 pm
Wed, Apr 26
62 °FClear.No wind93%29.81 "Hg10 mi
10:54 pm66 °FClear.6 mph81%29.81 "Hg10 mi
9:54 pm68 °FClear.6 mph78%29.80 "Hg10 mi
8:54 pm68 °FClear.5 mph78%29.79 "Hg10 mi
7:54 pm71 °FSunny.7 mph71%29.77 "Hg10 mi
6:54 pm77 °FSunny.9 mph54%29.77 "Hg10 mi
5:54 pm78 °FSunny.7 mph48%29.75 "Hg10 mi
Weather by CustomWeather, © 2017

See weather overviewHow to use our weather pages